Regional Weather Roundup
Issued by NWS

Home | Current Version | Previous Version | Text Only | Print | Product List | Glossary On
Versions: 1 2 3 4 5 6 7 8 9 10 11 12 13 14 15 16 17 18 19 20 21 22 23 24 25 26 27 28 29 30 31 32 33 34 35 36 37 38 39 40 41 42 43 44 45 46 47 48 49 50
000
ASUS43 KDTX 261510
RWRMI
MICHIGAN HOURLY REGIONAL WEATHER ROUNDUP
NATIONAL WEATHER SERVICE DETROIT/PONTIAC MI
1100 AM EDT SUN MAR 26 2017

NOTE: "FAIR" INDICATES FEW OR NO CLOUDS BELOW 12,000 FEET WITH NO
SIGNIFICANT WEATHER AND/OR OBSTRUCTION TO VISIBILITY.

MIZ047>049-052>055-059>063-066>070-074>076-081>083-261600-
SOUTHEAST LOWER MICHIGAN

CITY           SKY/WX    TMP DP  RH WIND       PRES   REMARKS
ADRIAN         LGT RAIN  41  39  93 E8        30.00S FOG
ALMA           CLOUDY    39  39  98 E6        29.99S FOG
ANN ARBOR      HVY RAIN  42  40  92 E8        30.02R FOG
BAD AXE        CLOUDY    41  37  88 SE7       30.03F
CARO           CLOUDY    43  39  86 E7        30.00F
DETROIT CITY   CLOUDY    44  40  85 SE10      30.02S
DETROIT        CLOUDY    45  39  79 SE7       30.04R
FLINT          CLOUDY    45  41  86 S10       30.01S
GROSSE ILE     CLOUDY    44  39  85 CALM      30.01R
HILLSDALE      LGT RAIN  41  39  93 E9        29.95S
HOWELL         LGT RAIN  43  40  91 SE6       29.97F

CITY           SKY/WX    TMP DP  RH WIND       PRES   REMARKS
JACKSON        LGT RAIN  44  41  89 E9        29.97S
LAMBERTVILLE   RAIN      40  38  91 SE6       30.03R
LANSING        CLOUDY    44  40  85 E6        29.97F
LAPEER         CLOUDY    43  40  88 SE8G18    30.00F
MASON          CLOUDY    43  41  92 SE5       29.97F
MONROE         LGT RAIN  42  41  95 S7        30.01R
MT. CLEMENS    CLOUDY    43  42  95 E6        30.00F
PONTIAC        CLOUDY    43  39  86 E10       29.98F
PORT HOPE        N/A     36  34  92 E10       30.03F WCI  28
PORT HURON     CLOUDY    45  39  81 E8        30.02F
TRI CITIES     CLOUDY    41  39  93 NE9       30.01F
MIDLAND        CLOUDY    40  36  86 E9        30.01S WCI  34
TROY           PTSUNNY   44  38  80 E7        30.02F
SAGINAW HB     CLOUDY    43  36  75 E8        30.00F
$$
MIZ043>046-050>051-056>058-064>065-071>073-077>080-261600-
SOUTHWEST LOWER MICHIGAN

CITY           SKY/WX    TMP DP  RH WIND       PRES   REMARKS
BATTLE CREEK   LGT RAIN  44  43  96 E8        29.94F FOG
BENTON HARBOR  LGT RAIN  50  47  89 SE9       29.89F FOG
BIG RAPIDS     MIX PCPN  38  36  93 E6        29.96F WCI  33
COLDWATER      LGT RAIN  45  45 100 SE8       29.94F
FREMONT        CLOUDY    40  39  98 E10       29.94F FOG     WCI  33
HOLLAND        LGT RAIN  46  43  89 E13       29.91F FOG
GRAND RAPIDS   LGT RAIN  42  39  89 E12       29.92F FOG
IONIA          LGT RAIN  39  39  97 NE9       29.95F WCI  33
KALAMAZOO      LGT RAIN  46  43  89 SE7       29.93F FOG
LUDINGTON      DRIZZLE   40  40  99 E7        29.93S
MARSHALL       LGT RAIN  44  44  99 E5        29.94S
MOUNT PLEASANT CLOUDY    38  37  94 E7        29.99F FOG     WCI  33
MUSKEGON       LGT RAIN  44  41  89 E12       29.92F FOG
SOUTH HAVEN    LGT RAIN  47  46  99 SE6       29.90F
$$
MIZ016>042-261600-
NORTHERN LOWER MICHIGAN

CITY           SKY/WX    TMP DP  RH WIND       PRES   REMARKS
ALPENA         CLOUDY    36  35  96 E10       30.07F WCI  28
BEAVER ISLAND  CLOUDY    33  33 100 E10       30.01S WCI  25
BELLAIRE       FLURRIES  40  37  88 SE3       30.00S
CADILLAC       DRIZZLE   37  36  96 E9        29.95F WCI  30
CHARLEVOIX     CLOUDY    37  37 100 E10       30.03S WCI  29
FRANKFORT      DRIZZLE   41  38  87 E3        29.95S
GAYLORD        LGT RAIN  36  32  85 SE10      30.00F FOG     WCI  28
GRAYLING       RAIN      36  36 100 E8        29.99F WCI  29
HARBOR SPRINGS CLOUDY    34  33  99 E12       30.02S WCI  25
HOUGHTON LAKE  CLOUDY    37  35  92 E9        29.99F WCI  30
MANISTEE       RAIN      40  39  97 E7        29.93F FOG
OSCODA         CLOUDY    39  36  89 E6        30.05F
PELLSTON       CLOUDY    34  31  88 E8        30.04F WCI  27
ROGERS CITY    MIX PCPN  35  33  93 SE12        N/A  WCI  26
TRAVERSE CITY  CLOUDY    41  37  86 SE5       29.97F
$$
MIZ007>008-015-261600-
EASTERN UPPER MICHIGAN

CITY           SKY/WX    TMP DP  RH WIND       PRES   REMARKS
KINROSS        MIX PCPN  31  30  96 E18       30.07F WCI  19
MACKINAC ISLAN CLOUDY    32  32 100 E16G31    30.05S WCI  21
NEWBERRY       CLOUDY    32  31  96 E10       30.03F WCI  24
S. S. MARIE    MIX PCPN  32  29  88 E8G21     30.08F WCI  25
MUNISING         N/A     34  33  96 S6        30.01F WCI  29
$$
MIZ004>006-011>014-085-261600-
CENTRAL UPPER MICHIGAN

CITY           SKY/WX    TMP DP  RH WIND       PRES   REMARKS
MANISTIQUE     MIX PCPN  32  32 100 E9G17     30.01F WCI  24
ESCANABA       LGT RAIN  34  33  96 NE6       30.00F FOG     WCI  29
MENOMINEE        N/A    N/A N/A N/A MISG        N/A
SAWYER-GWINN   FOG       32  30  93 SE3       29.99F VSB 1/2
$$
MIZ001>003-009>011-084-261600-
WESTERN UPPER MICHIGAN

CITY           SKY/WX    TMP DP  RH WIND       PRES   REMARKS
IRON MOUNTAIN  FOG       32  30  92 CALM      29.97S VSB 1/2
HOUGHTON       FOG       32  30  92 E7        29.98F VSB<1/4 WCI  26
COPPER HARBOR    N/A     34  32  92 VRB7      30.00F WCI  28
IRONWOOD       CLOUDY    34  33  96 N3        29.97S
$$

ABBREVIATIONS USED IN REMARKS
   TC - TEMPERATURE IN CELSIUS
  WCI - WIND CHILL INDEX
   HX - HEAT INDEX
  VSB - VISIBILITY




USA.gov is the U.S. government's official web portal to all federal, state and local government web resources and services.